Location: Igri�s
(42.2144°N, 0.4320°W)
Time: 14:23:38
(UTC+00:00)

ATLAS 3B R/B - Pass Details

Date: 13 August 2020
Orbit: 1016 x 1179 km, 63.8° (Epoch: 22 September)

Event Time Altitude Azimuth Distance (km) Brightness Sun altitude
Exits shadow 20:14:41 14° 102° (ESE) 2,511 4.1 -12.4°
Drops below altitude 10° 20:17:34 10° 76° (ENE) 2,804 4.5 -12.8°
Sets 20:21:34 0° 52° (NE) 3,772 5.4 -13.5°
